Bar Harbor Weather Center

Moon Phase Calendar



Online Cameras

 


      

Current Conditions in Bar Harbor
4/23/2024 10:44:36 PM

39°F
Feels Like 33
Clouds
Humidity
67%
Pressure
30.18"
Wind
8 mph (S)
Dew Point
29°F
UV Index
0/10 (Low)
Visibility
6 mi

Hourly Forecast

Date & Time Tue, Apr 23
10:00 PM
Tue, Apr 23
11:00 PM
Wed, Apr 24
12:00 AM
Wed, Apr 24
1:00 AM
Wed, Apr 24
2:00 AM
Wed, Apr 24
3:00 AM
Wed, Apr 24
4:00 AM
Wed, Apr 24
5:00 AM
Wed, Apr 24
6:00 AM
Wed, Apr 24
7:00 AM
Wed, Apr 24
8:00 AM
Wed, Apr 24
9:00 AM
Wed, Apr 24
10:00 AM
Wed, Apr 24
11:00 AM
Wed, Apr 24
12:00 PM
Wed, Apr 24
1:00 PM
Wed, Apr 24
2:00 PM
Wed, Apr 24
3:00 PM
Wed, Apr 24
4:00 PM
Wed, Apr 24
5:00 PM
Wed, Apr 24
6:00 PM
Wed, Apr 24
7:00 PM
Wed, Apr 24
8:00 PM
Wed, Apr 24
9:00 PM
Wed, Apr 24
10:00 PM
Wed, Apr 24
11:00 PM
Thu, Apr 25
12:00 AM
Thu, Apr 25
1:00 AM
Thu, Apr 25
2:00 AM
Thu, Apr 25
3:00 AM
Thu, Apr 25
4:00 AM
Thu, Apr 25
5:00 AM
Thu, Apr 25
6:00 AM
Thu, Apr 25
7:00 AM
Thu, Apr 25
8:00 AM
Thu, Apr 25
9:00 AM
Thu, Apr 25
10:00 AM
Thu, Apr 25
11:00 AM
Thu, Apr 25
12:00 PM
Thu, Apr 25
1:00 PM
Thu, Apr 25
2:00 PM
Thu, Apr 25
3:00 PM
Thu, Apr 25
4:00 PM
Thu, Apr 25
5:00 PM
Thu, Apr 25
6:00 PM
Thu, Apr 25
7:00 PM
Thu, Apr 25
8:00 PM
Thu, Apr 25
9:00 PM
Condition
Clouds

Clouds

Clouds

Clouds

Clouds

Clear

Clouds

Clouds

Clouds

Clouds

Clouds

Clouds

Clouds

Clouds

Clouds

Clouds

Rain

Rain

Rain

Rain

Rain

Rain

Clouds

Clouds

Clear

Clear

Clear

Clear

Clear

Clear

Clear

Clear

Clear

Clear

Clear

Clear

Clear

Clear

Clear

Clear

Clear

Clear

Clear

Clear

Clear

Clear

Clear

Clear
Temperature 39°F39°F39°F40°F40°F40°F40°F40°F40°F41°F42°F42°F43°F43°F43°F43°F42°F42°F42°F43°F44°F40°F40°F38°F35°F33°F31°F30°F28°F27°F27°F27°F27°F28°F29°F31°F35°F37°F40°F43°F44°F46°F46°F46°F46°F44°F42°F42°F
Feels Like 32°F31°F32°F32°F32°F33°F32°F32°F32°F33°F34°F34°F34°F34°F35°F34°F33°F33°F33°F35°F36°F29°F29°F25°F23°F20°F19°F17°F16°F15°F14°F14°F14°F15°F16°F19°F23°F27°F31°F35°F37°F39°F41°F41°F41°F41°F39°F38°F
Cloudiness 34%32%31%28%24%6%29%43%34%35%46%100%100%100%100%100%100%100%100%100%100%100%100%12%8%6%4%3%3%0%0%0%0%0%0%0%0%0%0%0%0%0%0%0%0%0%0%0%
Visibility 6 mi6 mi6 mi6 mi6 mi6 mi6 mi6 mi6 mi6 mi6 mi6 mi6 mi6 mi6 mi6 mi6 mi5 mi6 mi6 mi6 mi6 mi6 mi6 mi6 mi6 mi6 mi6 mi6 mi6 mi6 mi6 mi6 mi6 mi6 mi6 mi6 mi6 mi6 mi6 mi6 mi6 mi6 mi6 mi6 mi6 mi6 mi6 mi
Precipitation 0%0%0%0%0%0%0%0%0%0%0%0%0%0%0%0%88%100%100%100%100%100%80%0%0%0%0%0%0%0%0%0%0%0%0%0%0%0%0%0%0%0%0%0%0%0%0%0%
Humidity 68%67%69%71%73%76%80%80%80%79%80%80%78%78%77%78%89%93%96%97%95%77%70%67%63%62%61%54%54%54%55%55%57%57%54%49%44%40%38%41%40%41%42%44%48%53%59%57%
Dew Point 30°F29°F30°F31°F32°F33°F34°F34°F35°F35°F36°F36°F36°F36°F36°F37°F39°F40°F41°F42°F42°F33°F31°F28°F24°F21°F19°F15°F13°F13°F13°F13°F14°F14°F14°F14°F15°F15°F17°F20°F21°F23°F24°F25°F27°F28°F29°F28°F
Pressure 30.15"30.18"30.15"30.12"30.06"30"29.91"29.91"29.88"29.85"29.88"29.85"29.83"29.8"29.77"29.77"29.74"29.74"29.71"29.71"29.74"29.8"29.85"29.91"29.94"30"30.03"30.06"30.09"30.12"30.15"30.18"30.18"30.21"30.24"30.24"30.24"30.24"30.24"30.24"30.21"30.21"30.21"30.21"30.24"30.27"30.3"30.33"
Wind Speed 12 mph14.6 mph13.4 mph12.7 mph12.6 mph11.6 mph12.9 mph13.8 mph14.4 mph15.2 mph15.8 mph16.5 mph17.7 mph18.9 mph20.2 mph21.6 mph20.7 mph20.1 mph17.9 mph16.6 mph18.3 mph24.6 mph28.2 mph28.8 mph29.1 mph30 mph26.7 mph27.9 mph27.9 mph27.1 mph26.1 mph25 mph23.7 mph23.2 mph23.2 mph22.8 mph21.6 mph20.5 mph19.8 mph17.6 mph15.7 mph13.2 mph11.9 mph10.6 mph8 mph5.5 mph5.4 mph6.3 mph
Wind
Direction
167°
SSE
164°
SSE
174°
S
174°
S
178°
S
182°
S
164°
SSE
169°
S
170°
S
170°
S
185°
S
178°
S
181°
S
182°
S
185°
S
199°
SSW
205°
SSW
212°
SSW
213°
SSW
237°
WSW
274°
W
313°
NW
307°
NW
309°
NW
309°
NW
312°
NW
311°
NW
309°
NW
308°
NW
309°
NW
308°
NW
308°
NW
307°
NW
307°
NW
310°
NW
314°
NW
312°
NW
308°
NW
307°
NW
306°
NW
306°
NW
308°
NW
310°
NW
310°
NW
305°
NW
297°
WNW
281°
W
292°
WNW

Daily Forecast

Date High Low Precip. Humidity
Today
Apr 23

Clouds
45 °F
38 °F
0%
69%
Wednesday
Apr 24

Rain
44 °F
33 °F
100%
77%
Thursday
Apr 25

Clear
46 °F
27 °F
0%
38%
Friday
Apr 26

Clear
45 °F
36 °F
0%
48%
Saturday
Apr 27

Clear
44 °F
37 °F
0%
60%
Sunday
Apr 28

Clouds
47 °F
43 °F
0%
81%
Monday
Apr 29

Clouds
50 °F
44 °F
0%
73%
Tuesday
Apr 30

Rain
47 °F
44 °F
100%
87%
Wednesday
May 1

Rain
54 °F
45 °F
100%
92%
Thursday
May 2

Rain
51 °F
43 °F
20%
69%
Friday
May 3

Rain
54 °F
45 °F
43%
73%
Saturday
May 4

Clear
54 °F
43 °F
0%
56%
Sunday
May 5

Clouds
50 °F
43 °F
0%
52%
Monday
May 6

Clouds
53 °F
44 °F
0%
52%
Tuesday
May 7

Clear
51 °F
47 °F
0%
61%
Wednesday
May 8

Rain
47 °F
46 °F
100%
92%

Temperature 8-14 Day Outlook



Precipitation 8-14 Day Outlook




Quick Links
Bar Harbor News
Bar Harbor Photos
Bar Harbor Videos




About Us
Contact Us
Site Map
Search Site
Advertise With Us
   
BarHarbor.USCoast.info
THE BAR HARBOR WEBSITE

Copyright 2024, Coastal Town
Privacy    |    Legal